TimeAKST,TemperatureF,Dew PointF,Humidity,Sea Level PressureIn,VisibilityMPH,Wind Direction,Wind SpeedMPH,Gust SpeedMPH,PrecipitationIn,Events,Conditions,WindDirDegrees,DateUTC
12:14 AM,42.8,39.2,87,30.23,5.0,ESE,10.4,-,N/A,,Overcast,120,2013-01-21 09:14:00
12:53 AM,42.1,39.9,92,30.23,8.0,SE,9.2,-,N/A,,Overcast,130,2013-01-21 09:53:00
1:32 AM,42.8,39.2,87,30.21,3.0,ESE,9.2,-,0.01,,Overcast,120,2013-01-21 10:32:00
1:53 AM,42.1,39.0,89,30.20,6.0,SE,11.5,-,0.01,,Overcast,130,2013-01-21 10:53:00
2:27 AM,41.0,39.2,93,30.19,9.0,ESE,9.2,-,N/A,,Overcast,120,2013-01-21 11:27:00
2:34 AM,41.0,39.2,93,30.19,10.0,ESE,8.1,17.3,N/A,,Overcast,120,2013-01-21 11:34:00
2:53 AM,42.1,39.0,89,30.18,10.0,ESE,9.2,-,N/A,,Overcast,120,2013-01-21 11:53:00
3:23 AM,42.8,37.4,81,30.17,10.0,SE,9.2,-,N/A,,Overcast,130,2013-01-21 12:23:00
3:53 AM,42.1,37.9,85,30.18,10.0,SE,6.9,-,N/A,,Overcast,130,2013-01-21 12:53:00
4:53 AM,42.1,37.9,85,30.17,10.0,ESE,3.5,-,N/A,,Overcast,120,2013-01-21 13:53:00
5:53 AM,43.0,37.0,80,30.16,10.0,Calm,Calm,-,N/A,,Overcast,0,2013-01-21 14:53:00
6:53 AM,41.0,37.9,89,30.14,10.0,East,3.5,-,N/A,,Overcast,90,2013-01-21 15:53:00
7:53 AM,41.0,37.9,89,30.13,10.0,Calm,Calm,-,N/A,,Overcast,0,2013-01-21 16:53:00
8:29 AM,42.8,37.4,81,30.12,10.0,Calm,Calm,-,N/A,,Overcast,0,2013-01-21 17:29:00
8:53 AM,42.1,37.0,82,30.12,10.0,ESE,4.6,-,N/A,,Overcast,120,2013-01-21 17:53:00
9:53 AM,43.0,35.1,74,30.12,10.0,ESE,5.8,-,N/A,,Overcast,120,2013-01-21 18:53:00
10:53 AM,44.1,36.0,73,30.09,10.0,SE,5.8,-,N/A,,Overcast,130,2013-01-21 19:53:00
11:53 AM,43.0,35.1,74,30.07,10.0,SE,4.6,-,N/A,,Overcast,130,2013-01-21 20:53:00
12:53 PM,43.0,36.0,76,30.06,10.0,SE,3.5,-,N/A,,Overcast,140,2013-01-21 21:53:00
1:53 PM,41.0,37.0,86,30.04,10.0,SSE,4.6,-,N/A,,Mostly Cloudy,150,2013-01-21 22:53:00
2:53 PM,41.0,37.9,89,30.02,10.0,Calm,Calm,-,N/A,,Overcast,0,2013-01-21 23:53:00
3:53 PM,39.0,37.0,93,30.00,10.0,Calm,Calm,-,N/A,,Overcast,0,2013-01-22 00:53:00
4:53 PM,42.1,32.0,67,29.98,10.0,SE,3.5,-,N/A,,Clear,140,2013-01-22 01:53:00
5:53 PM,39.9,34.0,79,29.96,10.0,SSE,4.6,-,N/A,,Clear,160,2013-01-22 02:53:00
6:53 PM,36.0,34.0,93,29.94,10.0,Calm,Calm,-,N/A,,Clear,0,2013-01-22 03:53:00
7:53 PM,34.0,33.1,96,29.92,10.0,Calm,Calm,-,N/A,,Clear,0,2013-01-22 04:53:00
8:53 PM,35.1,33.1,92,29.91,10.0,Calm,Calm,-,N/A,,Clear,0,2013-01-22 05:53:00
9:53 PM,34.0,32.0,92,29.88,10.0,Calm,Calm,-,N/A,,Clear,0,2013-01-22 06:53:00
10:53 PM,34.0,32.0,92,29.88,10.0,Calm,Calm,-,N/A,,Clear,0,2013-01-22 07:53:00
11:53 PM,35.1,33.1,92,29.87,10.0,Calm,Calm,-,N/A,,Clear,0,2013-01-22 08:53:00